STARLINK-35266, 65804

Orbit data source: Space-Track

STARLINK-35266, 65804 is a payload satellite owned by SpaceX/Seattle (US) in SSO that was launched on Fri, 26 Sep 2025 UTC via an FALCON 9 launch vehicle from the Air Force Western Test Range (AFWTR). Payload-class satellites include a variety of spacecraft equipped with specific instruments for various scientific and technological missions. These include communications satellites like Starlink; space stations such as the ISS; scientific satellites like the Hubble; Earth observation satellites from companies like Planet Labs, Umbra, and HawkEye 360; GPS; miniature CubeSats for education and research; and military/defense satellites.

Loading next visibility...
Identifier
65804, 2025-218P
Orbit
SSO
Country
Flag of USUS
Related business
Manufacturer
SpaceX/Seattle
Mission
Operational Commercial Communications
Bus & Motor
STARLINK V2MO, Unknown motor
Mass
575 kg wet, ~530 kg dry
Launch date (UTC)
2025-09-26 (2 months ago)
Launch vehicle
FALCON 9
Launch site
Air Force Western Test Range (AFWTR)
Object type
Payload
Rocket body
Debris
Shape & HBR
Box + 2 Pan, 17.7 m
Radar Cross Section
36.964 m²

Expand to show TLE details & history
Last TLE update: 14 hours ago

TLE from 14 hours ago
0 STARLINK-35266
1 65804U 25218P   25340.62521665 -.00001643  00000-0 -10970-3 0  9994
2 65804  97.6024 201.1817 0002305  93.4245 266.7245 15.05636979 10969
Epoch: 2025-12-06T15:00Z
TLE epoch observation values (Epoch: 2025-12-06T15:00:18.718Z)
Latitude
-0.00007°
Longitude
-99.54655°
Altitude
552.708 km
Speed
7.585 km/s
True Right ascension
13h 24m 43s
True Declination
0° 00' 00"
Sunlit
Object was in daylight at epoch
Visualization orbit readout
Latitude
Unknown
Longitude
Unknown
Altitude
Unknown
Speed
Unknown
Apparent Right ascension
Unknown
Apparent Declination
Unknown
Sunlit
N/A
Visualization observer readout
Local Sidereal Time
03:23:46
Azimuth
Unknown
Elevation
Unknown
Doppler factor
Unknown
Orbital elements
Apogee altitude
548.141 km
Perigee altitude
544.948 km
Semi-major axis
6,924.682 km
Eccentricity
0.00023
Inclination
97.6024°
RAAN
201.1817°
Arg. of periapsis
93.4245°
True anomaly
266.69813°
Mean anomaly
266.7245°
Eccentric anomaly
266.71132°
Mean motion
3.76655 °/min
Orbital period
95.58 mins
BSTAR
-0.0001097
Loading maneuver chart data...
Computing Atmospheric mass density...
Loading historical data...
Loading historical data...
Loading historical data...
Loading historical data...
Loading historical data...
Loading historical data...
Loading historical data...

Documentation

Showing up to 5 results
|